When you browse on this site, cookies collect data to enhance your experience and personalize the content and advertising you see.
Visit our Privacy Policy to learn more. By continuing to use the site, you agree to this use of cookies and data.
  • In Österreich
  • Länderverzeichnis
  • Für 7 Tage
  • Wassertemperatur
  • Satellitenkarten
  • Wetterkarte
  • News
  • Widgets
  • user-avatar
    Anmelden

    Stündliche Wetter Rivne

    Heute, 19 Mai, Sonntag

    Zeit Temperatur Niederschläge Wind Luftdruck Luftfeuchtigkeit
    00:00 +12°C° 0 mm 3 m/S 749 mmHg 80%
    01:00 +11°C° 0 mm 3 m/S 749 mmHg 80%
    02:00 +12°C° 0 mm 2 m/S 749 mmHg 78%
    03:00 +12°C° 0 mm 2 m/S 749 mmHg 79%
    04:00 +11°C° 0 mm 3 m/S 749 mmHg 80%
    05:00 +11°C° 0 mm 3 m/S 749 mmHg 81%
    06:00 +13°C° 0 mm 3 m/S 749 mmHg 77%
    07:00 +16°C° 0 mm 3 m/S 749 mmHg 73%
    08:00 +18°C° 0 mm 3 m/S 749 mmHg 67%
    09:00 +20°C° 0 mm 4 m/S 749 mmHg 64%
    10:00 +21°C° 0 mm 4 m/S 750 mmHg 60%
    11:00 +22°C° 0 mm 4 m/S 750 mmHg 57%
    12:00 +23°C° 0 mm 4 m/S 750 mmHg 56%
    13:00 +23°C° 0 mm 4 m/S 750 mmHg 56%
    14:00 +23°C° 0 mm 4 m/S 750 mmHg 56%
    15:00 +23°C° 0 mm 4 m/S 750 mmHg 60%
    16:00 +24°C° 0 mm 3 m/S 750 mmHg 64%
    17:00 +22°C° 0 mm 3 m/S 750 mmHg 67%
    18:00 +21°C° 0 mm 3 m/S 750 mmHg 71%
    19:00 +19°C° 0 mm 3 m/S 750 mmHg 75%
    20:00 +17°C° 0 mm 3 m/S 750 mmHg 79%
    21:00 +16°C° 0 mm 3 m/S 750 mmHg 79%
    22:00 +14°C° 0 mm 3 m/S 751 mmHg 79%
    23:00 +13°C° 0 mm 3 m/S 751 mmHg 79%

    Morgen, 20 Mai, Montag

    Zeit Temperatur Niederschläge Wind Luftdruck Luftfeuchtigkeit
    00:00 +13°C° 0 mm 3 m/S 751 mmHg 79%
    01:00 +13°C° 0 mm 4 m/S 751 mmHg 80%
    02:00 +12°C° 0 mm 4 m/S 752 mmHg 80%
    03:00 +12°C° 0 mm 4 m/S 752 mmHg 80%
    04:00 +12°C° 0 mm 4 m/S 752 mmHg 80%
    05:00 +12°C° 0 mm 3 m/S 752 mmHg 79%
    06:00 +13°C° 0 mm 4 m/S 753 mmHg 73%
    07:00 +15°C° 0 mm 5 m/S 753 mmHg 67%
    08:00 +17°C° 0 mm 5 m/S 753 mmHg 61%
    09:00 +19°C° 0 mm 6 m/S 753 mmHg 58%
    10:00 +20°C° 0 mm 6 m/S 753 mmHg 56%
    11:00 +21°C° 0 mm 6 m/S 753 mmHg 53%
    12:00 +21°C° 0 mm 6 m/S 753 mmHg 53%
    13:00 +22°C° 0 mm 6 m/S 753 mmHg 53%
    14:00 +22°C° 0 mm 6 m/S 753 mmHg 54%
    15:00 +22°C° 0 mm 5 m/S 753 mmHg 58%
    16:00 +21°C° 0 mm 5 m/S 752 mmHg 62%
    17:00 +21°C° 0 mm 4 m/S 752 mmHg 66%
    18:00 +19°C° 0 mm 4 m/S 752 mmHg 69%
    19:00 +17°C° 0 mm 4 m/S 752 mmHg 73%
    20:00 +14°C° 0 mm 4 m/S 752 mmHg 77%
    21:00 +14°C° 0 mm 4 m/S 752 mmHg 77%
    22:00 +13°C° 0 mm 4 m/S 753 mmHg 76%
    23:00 +13°C° 0 mm 4 m/S 753 mmHg 76%

    übermorgen, 21 Mai, Dienstag

    Zeit Temperatur Niederschläge Wind Luftdruck Luftfeuchtigkeit
    00:00 +12°C° 0 mm 4 m/S 753 mmHg 75%
    01:00 +12°C° 0 mm 4 m/S 753 mmHg 73%
    02:00 +11°C° 0 mm 4 m/S 753 mmHg 72%
    03:00 +11°C° 0 mm 4 m/S 753 mmHg 73%
    04:00 +11°C° 0 mm 4 m/S 752 mmHg 74%
    05:00 +10°C° 0 mm 5 m/S 752 mmHg 74%
    06:00 +13°C° 0 mm 5 m/S 752 mmHg 72%
    07:00 +14°C° 0 mm 5 m/S 752 mmHg 69%
    08:00 +16°C° 0 mm 6 m/S 752 mmHg 66%
    09:00 +17°C° 0 mm 6 m/S 752 mmHg 65%
    10:00 +20°C° 0 mm 6 m/S 752 mmHg 63%
    11:00 +21°C° 0 mm 6 m/S 752 mmHg 62%
    12:00 +22°C° 0 mm 6 m/S 751 mmHg 61%
    13:00 +22°C° 0 mm 6 m/S 751 mmHg 60%
    14:00 +23°C° 0 mm 6 m/S 751 mmHg 58%
    15:00 +23°C° 0 mm 5 m/S 750 mmHg 62%
    16:00 +22°C° 0 mm 4 m/S 750 mmHg 65%
    17:00 +22°C° 0 mm 4 m/S 749 mmHg 68%
    18:00 +21°C° 0 mm 4 m/S 749 mmHg 73%
    19:00 +19°C° 0 mm 4 m/S 749 mmHg 77%
    20:00 +17°C° 0 mm 4 m/S 749 mmHg 81%
    21:00 +18°C° 0 mm 4 m/S 749 mmHg 78%
    22:00 +18°C° 0 mm 4 m/S 749 mmHg 74%
    23:00 +18°C° 0 mm 4 m/S 748 mmHg 71%

    22 Mai, Mittwoch

    Zeit Temperatur Niederschläge Wind Luftdruck Luftfeuchtigkeit
    00:00 +17°C° 0 mm 4 m/S 748 mmHg 74%
    01:00 +16°C° 0 mm 3 m/S 748 mmHg 77%
    02:00 +16°C° 0 mm 3 m/S 748 mmHg 80%
    03:00 +14°C° 0 mm 3 m/S 747 mmHg 82%
    04:00 +14°C° 0 mm 3 m/S 747 mmHg 85%
    05:00 +14°C° 0 mm 3 m/S 747 mmHg 87%
    06:00 +16°C° 0 mm 3 m/S 747 mmHg 85%
    07:00 +17°C° 0 mm 4 m/S 747 mmHg 83%
    08:00 +18°C° 0 mm 4 m/S 747 mmHg 80%
    09:00 +19°C° 0.3 mm 4 m/S 747 mmHg 81%
    10:00 +19°C° 0.3 mm 4 m/S 746 mmHg 82%
    11:00 +19°C° 0.3 mm 5 m/S 746 mmHg 83%
    12:00 +20°C° 0.2 mm 5 m/S 746 mmHg 80%
    13:00 +20°C° 0.2 mm 5 m/S 746 mmHg 76%
    14:00 +21°C° 0.2 mm 6 m/S 745 mmHg 73%
    15:00 +20°C° 0.9 mm 5 m/S 745 mmHg 79%
    16:00 +19°C° 0.9 mm 5 m/S 745 mmHg 84%
    17:00 +18°C° 0.9 mm 4 m/S 745 mmHg 89%
    18:00 +17°C° 0.7 mm 4 m/S 744 mmHg 91%
    19:00 +17°C° 0.7 mm 3 m/S 744 mmHg 92%
    20:00 +16°C° 0.7 mm 3 m/S 744 mmHg 94%
    21:00 +16°C° 0.2 mm 3 m/S 744 mmHg 95%
    22:00 +16°C° 0.2 mm 3 m/S 744 mmHg 95%
    23:00 +16°C° 0.2 mm 3 m/S 744 mmHg 96%

    23 Mai, Donnerstag

    Zeit Temperatur Niederschläge Wind Luftdruck Luftfeuchtigkeit
    00:00 +15°C° 0 mm 2 m/S 744 mmHg 96%
    01:00 +14°C° 0 mm 2 m/S 743 mmHg 96%
    02:00 +14°C° 0 mm 2 m/S 743 mmHg 96%
    03:00 +14°C° 0 mm 2 m/S 743 mmHg 96%
    04:00 +14°C° 0 mm 2 m/S 743 mmHg 96%
    05:00 +14°C° 0 mm 1 m/S 743 mmHg 96%
    06:00 +16°C° 0 mm 1 m/S 743 mmHg 92%
    07:00 +18°C° 0 mm 1 m/S 743 mmHg 88%
    08:00 +19°C° 0 mm 1 m/S 743 mmHg 84%
    09:00 +21°C° 0 mm 1 m/S 743 mmHg 77%
    10:00 +22°C° 0 mm 1 m/S 743 mmHg 71%
    11:00 +23°C° 0 mm 1 m/S 743 mmHg 64%
    12:00 +24°C° 0 mm 1 m/S 742 mmHg 62%
    13:00 +24°C° 0 mm 1 m/S 742 mmHg 59%
    14:00 +25°C° 0 mm 2 m/S 742 mmHg 56%
    15:00 +25°C° 0.5 mm 1 m/S 742 mmHg 60%
    16:00 +24°C° 0.5 mm 1 m/S 741 mmHg 63%
    17:00 +24°C° 0.5 mm 1 m/S 741 mmHg 67%
    18:00 +22°C° 0 mm 1 m/S 741 mmHg 72%
    19:00 +20°C° 0 mm 1 m/S 742 mmHg 77%
    20:00 +19°C° 0 mm 1 m/S 742 mmHg 82%
    21:00 +18°C° 0 mm 1 m/S 742 mmHg 83%
    22:00 +18°C° 0 mm 1 m/S 742 mmHg 84%
    23:00 +16°C° 0 mm 1 m/S 742 mmHg 86%

    24 Mai, Freitag

    Zeit Temperatur Niederschläge Wind Luftdruck Luftfeuchtigkeit
    00:00 +16°C° 0 mm 1 m/S 742 mmHg 88%
    01:00 +15°C° 0 mm 1 m/S 742 mmHg 90%
    02:00 +15°C° 0 mm 1 m/S 742 mmHg 92%
    03:00 +15°C° 0 mm 1 m/S 742 mmHg 93%
    04:00 +15°C° 0 mm 1 m/S 742 mmHg 93%
    05:00 +15°C° 0 mm 1 m/S 742 mmHg 94%
    06:00 +18°C° 0 mm 1 m/S 742 mmHg 89%
    07:00 +19°C° 0 mm 2 m/S 742 mmHg 84%
    08:00 +20°C° 0 mm 3 m/S 742 mmHg 78%
    09:00 +21°C° 0.1 mm 3 m/S 742 mmHg 74%
    10:00 +22°C° 0.1 mm 3 m/S 742 mmHg 70%
    11:00 +24°C° 0.1 mm 3 m/S 742 mmHg 66%
    12:00 +23°C° 0.8 mm 4 m/S 742 mmHg 68%
    13:00 +23°C° 0.8 mm 4 m/S 741 mmHg 69%
    14:00 +23°C° 0.8 mm 5 m/S 741 mmHg 71%
    15:00 +23°C° 0.2 mm 4 m/S 741 mmHg 71%
    16:00 +23°C° 0.2 mm 4 m/S 741 mmHg 72%
    17:00 +24°C° 0.2 mm 3 m/S 740 mmHg 73%
    18:00 +22°C° 0.1 mm 3 m/S 740 mmHg 78%
    19:00 +20°C° 0.1 mm 3 m/S 740 mmHg 82%
    20:00 +19°C° 0.1 mm 3 m/S 740 mmHg 87%
    21:00 +18°C° 0.4 mm 3 m/S 740 mmHg 89%
    22:00 +17°C° 0.4 mm 3 m/S 740 mmHg 90%
    23:00 +17°C° 0.4 mm 3 m/S 740 mmHg 92%
    Mehr zeigen